# Land Stadt Wetter Temperatur Luftdruck Luftfeuchtigkeit Sichtweite Windgeschwindigkeit Windrichtung Ortszeit
1 cn Lhasa Clear 3 1005 8 0 5 165 02.08.2018 14:22
2 sa Riad Clouds 17 1019 21 10000 15 190 02.08.2018 14:21
3 cn Peking Clear 8 1024 22 10000 7 30 02.08.2018 14:23
4 us Los Angeles Clear 12 1017 25 16093 13 250 02.08.2018 14:22
5 mx Mexiko Stadt Clouds 10 1025 35 16093 5 37 02.08.2018 14:21
6 us Death Valley Clear 6 1020 35 0 3 314 02.08.2018 14:22
7 af Kabul Smoke 2 1021 37 7000 5 0 02.08.2018 14:21
8 es Las Palmas de Gran Canaria Clouds 17 1022 39 10000 8 300 02.08.2018 14:21
9 qa Doha Clouds 21 1021 40 10000 4 0 02.08.2018 14:23
10 et Addis Abeba Clear 21 1015 40 0 9 114 02.08.2018 14:23
11 ae Dubai Clouds 22 1020 40 10000 5 0 02.08.2018 14:21
12 cd Kisangani Clouds 33 1012 40 0 5 100 02.08.2018 14:23
13 th Bangkok Clouds 33 1010 41 10000 11 160 02.08.2018 14:21
14 cn Shanghai Clouds 8 1021 42 10000 25 320 02.08.2018 14:21
15 in Nagpur Haze 26 1015 44 5000 4 340 02.08.2018 14:21
16 kr Seoul Clouds 9 1014 45 10000 5 210 02.08.2018 14:21
17 in Mumbai Smoke 26 1016 47 4000 18 330 02.08.2018 14:22
18 us Las Vegas Clouds 7 1018 49 16093 8 270 02.08.2018 14:21
19 fr Nizza Clouds 12 1010 50 10000 35 270 02.08.2018 14:22
20 us New York Clouds 1 1015 51 16093 13 340 02.08.2018 14:22
21 vn Hanoi Clouds 16 1020 51 10000 13 360 02.08.2018 14:21
22 mn Ulaanbaatar Clear -7 1018 52 10000 7 0 02.08.2018 14:23
23 mg Antananarivo Clouds 27 1018 54 10000 9 70 02.08.2018 14:21
24 au Perth Clouds 25 1007 57 10000 28 240 02.08.2018 14:21
25 ph Manila Clouds 29 1009 58 10000 18 280 02.08.2018 14:21
26 iq Bagdad Clouds 14 1017 58 10000 17 120 02.08.2018 14:22
27 bo Potisi Clouds 5 1014 60 0 10 266 02.08.2018 14:22
28 ar Buenos Aires Clouds 22 1008 60 10000 8 250 02.08.2018 14:22
29 ad Andorra la Vella Clouds 2 1022 61 0 8 21 02.08.2018 14:22
30 us Nome Clear -27 1008 61 16093 14 13 02.08.2018 14:23
31 gr Athen Clouds 14 1013 62 10000 20 277 02.08.2018 14:22
32 ma Marrakesch Clouds 7 1025 65 10000 8 80 02.08.2018 14:23
33 gl Nuuk Clear -13 999 65 0 18 20 02.08.2018 14:22
34 id Jakarta Clouds 31 1008 66 6000 17 310 02.08.2018 14:22
35 ru Jakutsk Clouds -35 1032 66 10000 11 350 02.08.2018 14:22
36 eg Kairo Haze 16 1023 67 4000 11 240 02.08.2018 14:22
37 jp Tokio Clouds 16 999 67 10000 11 190 02.08.2018 14:22
38 in Jagatsukh Clouds 3 1017 67 0 2 184 02.08.2018 14:22
39 au Sydney Clouds 25 1016 69 10000 21 110 02.08.2018 14:22
40 us Tucson Clear 5 1016 69 16093 13 120 02.08.2018 14:21
41 us Honolulu Clouds 22 1019 69 16093 9 310 02.08.2018 14:22
42 tr Ankara Clouds 6 1016 70 10000 17 210 02.08.2018 14:23
43 mn Uliastai Clouds -12 1025 70 0 6 176 02.08.2018 14:23
44 bg Warna Clouds 9 1005 70 10000 4 0 02.08.2018 14:21
45 de Frankfurt Clouds 4 1008 70 10000 24 200 02.08.2018 14:22
46 mv Male Clouds 27 1011 70 0 22 60 02.08.2018 14:23
47 tr Istanbul Clouds 12 1011 71 10000 35 200 02.08.2018 14:23
48 jp Nagasaki Clouds 11 1011 71 10000 15 340 02.08.2018 14:21
49 is Reykjavik Clear -5 987 73 10000 8 90 02.08.2018 14:22
50 us Denver Clear -3 1018 73 16093 7 210 02.08.2018 14:21
51 de München Rain 2 1010 74 10000 17 250 02.08.2018 14:21
52 de Dresden Clouds 3 1002 74 10000 21 240 02.08.2018 14:22
53 au Darwin Rain 31 1004 74 10000 22 300 02.08.2018 14:22
54 us Fairbanks Clouds -33 997 74 16093 8 13 02.08.2018 14:23
55 gb London Clear 3 1008 75 10000 22 250 02.08.2018 14:22
56 ru Surgut Clouds -26 1021 75 10000 18 260 02.08.2018 14:23
57 at Wien Rain 2 1008 75 10000 8 190 02.08.2018 14:22
58 de Hannover Clouds 5 1000 75 10000 28 250 02.08.2018 14:21
59 pg Port Moresby Rain 30 1009 75 0 9 177 02.08.2018 14:21
60 de Magdeburg Clouds 4 995 76 0 42 247 02.08.2018 14:22
61 us Miami Clouds 17 1014 77 16093 8 300 02.08.2018 14:23
62 ca Montreal Clear -10 1018 78 14484 9 10 02.08.2018 14:22
63 no Hammerfest Clouds -7 1004 78 7000 55 170 02.08.2018 14:22
64 au Alice Springs Rain 25 1007 78 10000 13 270 02.08.2018 14:21
65 fj Suva Clouds 28 1009 78 10000 5 170 02.08.2018 14:21
66 de Berlin Clouds 4 999 79 10000 30 250 02.08.2018 14:21
67 de Braunschweig Clouds 5 1000 80 10000 30 260 02.08.2018 14:21
68 de Nürnberg Rain 2 1008 80 10000 21 250 02.08.2018 14:21
69 de Torfhaus Clouds 4 1000 80 10000 30 260 02.08.2018 14:22
70 de Freiburg Rain 4 1012 80 10000 9 140 02.08.2018 14:22
71 de Kassel Clouds 3 1003 80 10000 13 220 02.08.2018 14:21
72 de Köln Clouds 4 1007 80 10000 30 240 02.08.2018 14:21
73 de Stuttgart Clouds 2 1010 80 10000 9 200 02.08.2018 14:22
74 ie Dublin Clouds 4 1004 80 10000 22 250 02.08.2018 14:21
75 de Bremen Clouds 5 998 80 10000 35 240 02.08.2018 14:22
76 us Chicago Snow -1 1021 80 14484 8 20 02.08.2018 14:23
77 de Emden Clouds 5 998 80 10000 31 250 02.08.2018 14:21
78 ar Ushuaia Rain 5 997 80 10000 33 230 02.08.2018 14:22
79 gb Glasgow Rain 3 998 80 10000 21 250 02.08.2018 14:21
80 ch Andermatt Rain 0 1013 80 10000 21 300 02.08.2018 14:23
81 fr Paris Clouds 5 1012 81 10000 15 250 02.08.2018 14:22
82 tr Alanya Rain 10 1021 81 5000 22 270 02.08.2018 14:22
83 it Palermo Clouds 14 1020 82 10000 30 260 02.08.2018 14:22
84 ke Nairobi Clouds 20 1023 82 10000 9 70 02.08.2018 14:22
85 at Innsbruck Snow 1 1011 82 4000 2 0 02.08.2018 14:23
86 cl Santiago Clear 16 1014 82 10000 13 180 02.08.2018 14:23
87 za Kapstadt Clouds 22 1017 83 10000 31 190 02.08.2018 14:22
88 mx Veracruz Rain 22 1011 84 0 16 354 02.08.2018 14:21
89 nz Wellington Clear 19 1004 84 0 2 196 02.08.2018 14:23
90 ru Anadyr Snow -16 1017 84 10000 4 220 02.08.2018 14:23
91 fi Rovaniemi Snow -11 1005 85 10000 18 80 02.08.2018 14:21
92 gb Manchester Rain 4 1004 86 10000 15 250 02.08.2018 14:21
93 bg Sofia Rain 3 1011 86 8000 31 280 02.08.2018 14:21
94 de Helgoland Clouds 5 995 86 8000 33 260 02.08.2018 14:22
95 de Oberstdorf Rain 1 1012 87 10000 11 260 02.08.2018 14:21
96 ec San Cristobal Rain 25 1011 87 0 18 203 02.08.2018 14:22
97 pe Cusco Clouds 8 1030 87 10000 8 110 02.08.2018 14:23
98 es Barcelona Clouds 9 1021 87 10000 9 330 02.08.2018 14:22
99 uy Montevideo Clouds 18 1008 88 10000 4 0 02.08.2018 14:22
100 br Manaus Clouds 26 1010 88 10000 9 80 02.08.2018 14:21
101 de Hiddensee Clouds 4 999 90 0 2 247 02.08.2018 14:21
102 ar Esquel Clouds 9 1019 91 10000 13 250 02.08.2018 14:22
103 es Palma de Mallorca Clouds 12 1022 93 10000 5 70 02.08.2018 14:22
104 bo La Paz Fog 6 1035 93 4000 9 100 02.08.2018 14:22
105 bs Nassau Clouds 20 1014 93 10000 5 130 02.08.2018 14:22
106 ma Casablanca Clouds 6 1025 93 10000 5 120 02.08.2018 14:23
107 de Hamburg Rain 3 997 93 10000 9 240 02.08.2018 14:21
108 it Mailand Clear 5 1009 93 10000 8 250 02.08.2018 14:21
109 de Flensburg Rain 4 992 93 10000 15 230 02.08.2018 14:21
110 fr Bordeaux Clouds 8 1021 93 10000 9 220 02.08.2018 14:21
111 se Stockholm Rain 4 989 93 10000 8 140 02.08.2018 14:23
112 sb Honiara Rain 28 1006 94 10000 11 180 02.08.2018 14:22
113 br Rio de Janeiro Clouds 24 1011 94 10000 11 140 02.08.2018 14:22
114 de Trier Clouds 2 1008 96 10000 22 220 02.08.2018 14:21
115 ru Amderma Clouds -22 1023 96 0 9 310 02.08.2018 14:23
116 fi Helsinki Rain 1 997 97 6000 21 110 02.08.2018 14:21
117 no Oslo Snow 1 985 98 9000 8 30 02.08.2018 14:23
118 ru Werchojansk Snow -28 1023 99 0 6 91 02.08.2018 14:22
119 do Santo Domingo Clouds 22 1013 100 10000 8 30 02.08.2018 14:21
120 es Madrid Clouds 10 1024 100 10000 15 230 02.08.2018 14:23
121 pt Lissabon Clouds 14 1024 100 10000 17 200 02.08.2018 14:22
122 es Tarifa Mist 12 1026 100 3000 8 90 02.08.2018 14:21
123 it Rom Fog 9 1014 100 150 5 0 02.08.2018 14:23
124 es Sevilla Fog 10 1026 100 300 8 40 02.08.2018 14:22
125 ua Kiew Fog 1 1000 100 450 14 130 02.08.2018 14:21
126 ru Moskau Rain 1 1007 100 4200 11 150 02.08.2018 14:22
127 ck Avarua Clear 24 1013 100 10000 4 40 02.08.2018 14:22
128 ch Bern Drizzle 3 1014 100 10000 8 100 02.08.2018 14:23